Location: Rounton
(54.4000°N, 1.3500°W)
Time: 20:07:16
(UTC+01:00)

YAOGAN 20A - Pass Details

Date: 30 June 2022
Orbit: 891 x 1288 km, 63.4° (Epoch: 18 August)

Event Time Altitude Azimuth Distance (km) Brightness Sun altitude
Rises 03:26:54 0° 310° (NW) 3,888 8.2 -7.0°
Reaches altitude 10° 03:29:56 10° 298° (WNW) 2,993 7.4 -6.7°
Maximum altitude 03:35:37 26° 246° (WSW) 2,135 6.2 -6.3°
Drops below altitude 10° 03:41:38 10° 194° (SSW) 3,191 7.0 -5.8°
Sets 03:45:00 0° 182° (S) 4,196 7.7 -5.5°
